Wind_Speed
7 8 12 12 10 12 12 9 8 12 14 13 11 12 13 13 14 13 13 13 13 14 17 21 21 20 20 16 15 13 12 12 11 10 6 4 3 2 3 3 3 3 4 3
6 12 13 15 16 16 17 13 11 10 15 12 13 13 13 13 13 14 14 14 15 16 18 16 19 19 18 18 15 12 13 11 7 6 5 1 4 4 3 3 3 4 4 4
5 5 10 14 13 15 14 6 5 10 5 12 14 14 13 12 12 14 14 13 15 15 16 17 15 17 18 13 11 9 9 6 1 2 1 0 1 2 2 2 2 3 3 4
8 5 6 1 2 4 9 8 7 11 11 11 13 14 13 5 9 13 13 14 15 19 21 19 15 17 14 11 8 5 4 5 6 3 4 2 2 4 2 1 0 1 4 5
4 9 13 10 4 2 3 9 10 14 9 8 12 15 3 5 6 9 10 14 15 17 18 20 19 19 10 13 11 10 10 10 10 7 5 6 7 6 5 3 9 11 12 11
6 9 6 2 3 7 6 7 10 5 5 7 8 6 3 1 3 9 10 10 15 16 16 17 18 19 14 16 15 14 12 9 6 8 8 7 5 6 9 13 13 13 13 11
10 9 8 5 7 6 5 4 3 5 6 6 5 4 6 7 6 6 8 9 10 12 13 15 17 17 16 15 16 15 13 12 12 11 11 10 11 11 12 13 14 13 13 12
5 4 5 10 8 6 1 3 4 5 4 3 8 9 7 6 6 7 6 5 3 11 12 12 12 14 15 15 13 12 13 16 16 15 14 14 13 13 13 13 14 13 12 11
3 3 1 13 5 10 7 7 5 5 4 4 5 5 3 2 6 6 1 6 5 6 9 12 11 8 11 11 11 13 12 13 14 14 14 14 14 14 15 13 14 12 11 10
6 4 14 12 15 10 12 9 7 6 5 4 5 5 5 4 5 7 8 8 7 6 6 5 4 9 8 8 6 7 10 13 10 11 11 11 12 13 13 13 11 10 10 9
11 14 7 13 16 15 13 11 10 8 7 5 4 4 5 4 5 6 6 7 7 4 6 9 8 7 7 7 6 7 8 7 7 8 11 15 18 17 13 13 10 8 10 9
6 7 10 4 17 17 15 14 12 10 8 7 5 4 3 4 4 6 7 7 8 8 9 9 10 11 11 10 10 9 9 10 10 11 11 10 10 12 17 17 18 16 11 11
5 4 13 3 15 20 16 15 14 12 10 7 7 6 4 3 2 2 4 5 6 7 7 7 7 7 8 8 8 8 8 8 8 8 8 8 7 6 6 6 9 14 15 14
14 6 12 12 13 19 19 18 15 14 12 11 9 8 6 5 3 4 3 3 3 3 4 5 5 6 6 6 6 5 6 6 6 6 7 7 7 7 7 6 5 4 7 8
16 15 7 13 14 18 22 19 15 14 14 14 13 11 9 9 8 6 5 4 4 3 3 3 2 2 1 2 3 3 3 4 4 5 5 3 4 4 4 4 5 4 3 5
17 17 16 14 17 18 19 18 18 16 17 17 16 14 13 11 10 8 7 7 6 6 3 4 4 3 2 2 2 2 2 4 1 2 4 3 3 3 4 4 4 4 3 3
15 21 20 20 19 20 22 19 19 18 19 19 18 16 15 14 12 12 11 10 10 10 8 7 6 5 6 5 4 3 3 4 4 2 2 2 2 2 2 2 2 2 1 2
20 19 19 19 17 18 18 24 24 23 21 20 19 18 17 16 15 14 13 12 11 12 11 10 9 8 8 7 6 5 5 4 4 3 2 2 1 1 1 1 1 2 3 4
20 19 22 22 24 22 23 24 26 25 24 22 21 21 20 19 17 16 14 14 13 13 13 12 14 14 11 10 9 7 6 6 5 5 4 4 3 4 4 5 5 6 6 6
15 19 23 24 24 26 24 27 27 26 26 24 23 22 21 21 19 17 17 18 18 16 12 11 13 14 14 13 14 10 9 9 8 8 7 7 7 8 8 9 9 9 9 9
10 14 19 23 24 26 25 27 26 27 28 27 26 25 23 21 20 19 19 18 19 18 18 16 15 14 14 15 15 13 12 11 11 11 11 11 11 11 11 12 12 12 12 12
14 12 15 21 25 25 28 28 28 27 29 28 27 26 23 23 21 22 23 21 16 17 17 18 19 19 17 17 16 15 15 15 15 14 14 15 15 15 16 14 15 16 15 16
19 18 17 19 22 25 25 28 28 28 29 27 28 27 27 24 23 21 17 23 23 20 20 20 20 22 21 23 19 20 19 19 19 19 19 20 21 23 24 23 21 22 22 22
21 19 17 16 18 21 20 26 29 31 29 30 30 30 28 25 25 25 24 21 20 24 25 24 24 25 25 26 26 24 24 24 24 24 23 23 25 28 26 28 29 29 29 30
23 23 18 15 15 18 24 26 27 27 29 29 31 31 31 30 26 25 25 25 25 25 24 25 29 28 28 30 28 28 28 27 27 27 26 27 28 29 33 32 31 32 31 31
27 20 20 20 18 19 21 21 23 26 26 26 28 29 29 29 29 29 27 26 25 26 30 27 30 33 35 34 32 32 31 30 30 31 33 31 29 29 33 34 33 29 29 30
28 28 22 18 16 16 17 20 20 22 25 25 24 26 28 28 29 30 30 29 29 28 26 29 30 32 33 33 34 34 32 32 32 31 31 32 33 35 35 34 32 29 28 28
Wind_Direction
268 256 260 270 263 263 264 273 282 319 308 313 340 316 322 329 321 323 333 322 328 333 332 326 323 320 318 309 296 291 283 276 274 281 280 250 212 167 149 203 216 214 221 232
278 243 257 262 258 254 253 265 269 285 288 14 326 329 324 325 330 335 329 330 331 335 331 324 316 320 316 311 299 294 277 253 258 279 253 242 209 187 181 195 215 208 207 209
288 332 298 267 250 238 252 238 251 258 311 314 319 316 316 329 329 331 325 329 330 328 328 316 313 324 311 312 311 298 280 273 303 294 337 320 224 166 134 169 216 228 213 211
291 286 247 82 214 309 237 250 230 248 269 281 297 306 313 322 342 326 325 331 329 328 326 331 334 331 327 347 352 353 2 49 48 18 65 156 107 87 70 62 162 28 82 69
276 296 291 214 141 213 198 275 227 237 253 281 303 298 242 39 349 319 332 324 322 320 324 330 336 340 351 15 25 31 32 40 29 18 49 55 63 58 68 86 84 79 68 64
290 302 289 92 156 186 180 274 126 176 230 276 308 301 22 33 307 301 307 300 307 321 328 338 340 348 11 17 33 38 38 48 62 60 67 77 92 84 80 91 90 91 83 73
257 256 266 135 176 181 245 50 143 185 234 241 271 267 300 317 312 295 307 314 316 334 342 345 345 350 10 18 25 28 41 50 58 65 72 78 82 82 91 96 101 98 94 84
257 267 266 154 166 224 266 247 241 257 249 239 233 251 262 275 294 285 275 317 329 345 342 350 352 358 4 14 23 30 41 48 53 57 62 68 77 81 86 94 93 89 90 83
260 271 195 193 184 221 231 257 260 274 296 281 291 308 304 299 271 311 273 352 29 25 342 348 10 10 357 12 26 35 38 48 55 64 70 73 77 79 82 84 84 79 74 64
269 274 245 220 226 228 227 240 251 247 270 278 299 326 323 343 342 345 356 2 360 11 335 353 17 9 19 26 49 48 50 55 54 62 67 74 79 78 76 71 70 74 72 66
250 250 235 226 222 224 223 225 234 241 255 256 290 302 334 338 350 358 356 0 357 1 342 13 22 25 35 38 41 48 60 74 94 92 84 73 63 58 63 62 75 78 73 74
224 219 198 232 204 207 212 216 220 229 231 237 258 285 313 319 352 346 0 360 0 6 6 11 10 13 18 24 30 33 46 54 47 56 60 73 84 74 64 65 58 67 86 94
249 236 203 219 183 195 204 209 210 219 231 228 225 245 242 288 314 341 316 343 356 3 2 4 6 14 22 24 27 36 44 49 55 59 64 72 71 86 98 62 56 47 55 60
229 210 202 200 189 191 199 201 203 215 218 222 226 214 224 239 214 252 279 321 323 341 352 354 355 0 6 16 25 39 60 68 58 62 67 66 64 65 67 71 79 84 45 48
218 212 237 199 198 190 196 199 205 208 213 211 212 218 215 222 231 239 248 241 255 279 291 301 323 352 13 30 32 38 30 52 65 71 66 83 87 86 85 83 80 76 79 35
221 218 220 210 203 195 198 201 207 209 209 210 212 212 218 223 233 236 234 235 240 249 248 247 253 240 207 189 185 170 125 128 117 145 146 129 105 95 87 71 60 54 44 31
231 219 215 217 208 205 203 205 209 212 211 210 213 214 214 219 227 232 235 233 236 244 246 245 242 212 206 205 202 194 189 187 181 197 139 105 77 72 58 48 42 24 18 238
233 238 229 227 220 214 213 211 212 213 214 215 212 213 217 218 225 228 230 233 236 241 239 237 232 223 219 218 215 218 219 215 218 210 211 210 212 232 229 259 272 277 276 281
254 239 239 228 229 221 217 215 216 216 216 213 212 214 218 223 224 228 228 230 231 241 245 236 232 230 227 226 220 228 233 238 243 241 239 247 257 248 255 256 260 264 269 273
296 267 247 240 230 227 224 219 216 217 216 214 214 216 218 220 222 223 225 232 234 237 239 232 220 223 225 226 235 228 237 239 244 249 247 250 253 253 257 261 264 268 268 266
300 284 265 249 240 230 228 225 215 217 216 214 215 216 217 220 218 219 227 234 239 236 231 228 225 229 226 222 231 224 232 236 239 241 242 245 250 252 254 255 256 257 259 263
316 294 277 257 245 236 230 226 221 218 219 216 215 217 211 221 221 224 227 234 239 232 225 224 225 228 225 224 221 227 231 234 238 241 242 242 243 244 243 248 251 252 253 254
321 307 293 277 254 240 235 227 228 216 220 219 212 211 215 220 223 225 231 232 233 234 224 226 227 227 230 222 221 226 231 234 236 239 240 240 241 245 249 253 255 257 255 255
321 311 301 290 268 246 239 231 228 229 216 222 221 219 218 221 229 232 238 237 233 227 225 230 230 230 233 228 224 227 230 233 235 238 240 244 249 254 250 257 260 262 262 266
319 315 303 289 266 254 246 241 235 228 229 221 226 223 223 225 226 227 230 233 233 228 228 230 229 231 234 230 226 228 230 234 236 238 240 243 245 250 261 260 259 263 266 267
303 300 305 298 279 267 258 243 237 234 225 229 225 224 225 223 227 232 233 229 229 229 229 228 233 236 236 236 233 233 233 236 238 240 243 244 246 251 257 259 261 260 261 264
292 291 286 288 281 267 257 257 252 239 237 234 234 226 223 224 225 227 227 230 229 230 228 228 229 233 240 241 240 238 237 238 239 240 241 246 250 256 256 255 260 262 264 265
Height
869 875 854 847 851 850 843 843 847 847 843 834 839 839 835 834 832 831 834 834 830 829 829 827 823 818 813 810 808 804 800 799 796 793 792 794 793 793 794 797 799 800 802 803
867 857 851 848 841 838 838 837 839 844 840 839 838 837 835 834 833 833 834 832 829 828 827 825 821 816 812 808 804 800 798 797 793 791 791 789 793 794 795 797 799 800 801 804
850 852 844 835 835 839 841 849 857 857 849 846 844 841 838 836 837 838 835 833 830 827 825 823 818 814 810 804 800 797 794 791 789 789 788 790 792 792 793 796 798 800 802 804
853 862 839 849 855 852 845 847 852 854 852 851 846 839 839 838 844 841 839 836 832 828 824 820 817 812 805 803 798 795 790 789 789 790 790 794 793 793 795 796 798 798 800 802
857 837 823 821 848 852 855 844 846 848 850 851 844 838 831 845 846 844 842 839 836 833 828 821 815 812 805 800 796 794 789 789 787 789 791 792 792 795 796 798 798 799 801 803
846 850 833 841 848 842 846 827 835 848 850 852 849 838 835 845 845 843 842 839 835 831 828 823 816 811 806 802 798 797 794 797 797 793 791 794 797 797 797 798 800 801 805 807
839 836 816 842 836 837 837 830 835 837 845 847 847 846 845 844 843 842 840 838 834 830 827 824 818 813 809 806 802 799 800 798 795 795 795 797 797 798 799 800 802 804 805 808
833 828 827 835 834 838 835 830 830 828 828 833 840 842 842 842 841 840 838 836 833 830 827 825 822 817 811 808 807 805 802 800 799 799 798 798 799 800 801 802 803 804 807 808
832 823 837 831 838 833 831 828 826 827 826 828 828 828 831 835 835 831 832 831 831 831 828 824 823 821 816 812 809 808 806 806 806 806 806 805 806 805 805 806 806 806 808 808
832 820 817 823 825 825 827 827 826 826 826 827 826 827 827 828 829 829 828 828 828 830 828 825 823 821 819 817 815 814 812 811 811 811 811 812 811 811 810 810 810 811 811 811
814 807 810 811 815 818 821 823 824 824 825 825 826 825 827 826 827 828 828 827 827 826 825 824 823 822 821 820 818 816 815 815 814 815 814 813 810 811 814 814 814 814 814 815
798 790 796 794 804 811 816 818 821 822 822 824 826 825 827 826 827 827 827 827 826 825 825 824 822 821 820 819 818 817 816 816 815 814 813 814 816 818 818 817 816 815 814 815
787 788 791 793 798 805 810 813 817 819 820 820 823 825 826 826 827 829 828 827 826 826 826 826 825 824 824 823 822 821 820 819 819 819 818 818 818 817 819 820 819 818 818 817
786 790 791 792 793 800 805 809 813 815 817 819 820 822 824 825 826 827 827 827 828 828 828 827 826 826 825 825 824 824 824 823 822 822 822 821 820 820 819 820 820 821 819 819
782 786 784 788 791 796 801 805 807 810 812 815 818 820 821 823 824 825 825 827 828 828 828 828 827 828 828 827 826 826 825 824 824 825 825 824 823 822 822 821 820 820 820 820
779 781 784 784 786 790 795 798 801 802 806 809 813 816 819 820 822 822 824 825 826 824 825 826 827 827 827 828 828 827 827 826 825 824 824 823 823 822 822 821 821 820 821 821
775 776 777 777 779 782 786 791 794 797 800 804 807 811 814 816 818 819 819 820 822 823 823 824 824 825 825 825 826 825 825 825 824 823 822 822 821 821 821 820 820 820 819 818
767 770 774 777 778 780 783 786 789 792 795 798 802 806 809 810 811 813 814 816 817 818 819 820 821 822 823 823 823 823 823 823 822 822 821 821 820 820 819 818 818 817 816 815
761 763 766 769 772 774 777 780 784 788 791 794 797 800 802 804 806 808 809 811 812 813 813 814 815 816 818 818 819 820 820 819 819 819 818 818 817 816 816 815 815 814 814 814
762 761 762 763 766 769 771 774 778 782 785 788 791 793 795 797 800 802 804 804 806 807 808 809 810 811 812 813 814 815 815 816 816 816 816 816 815 814 814 813 813 813 813 812
763 762 761 761 760 763 765 768 772 774 778 781 783 785 788 790 793 797 798 798 798 800 802 804 805 806 807 808 809 811 812 812 812 812 812 812 812 812 811 811 810 810 810 809
762 760 758 756 756 756 759 762 764 768 770 772 776 779 782 784 785 787 789 790 791 793 795 797 798 799 801 803 805 806 806 807 807 807 807 807 807 807 806 805 805 804 804 802
763 759 756 754 751 750 754 756 758 759 763 765 768 772 775 776 778 779 779 782 785 786 788 789 790 792 793 796 798 799 800 800 801 801 801 800 800 799 798 798 798 797 796 795
762 758 754 750 749 748 748 748 752 753 755 759 761 764 767 769 770 771 772 774 775 777 779 781 783 785 787 788 790 791 792 792 793 793 794 793 792 791 791 790 789 788 788 786
763 757 751 747 745 744 743 744 744 745 748 750 752 754 757 759 759 762 764 765 767 769 771 773 775 777 779 780 781 782 783 784 784 785 785 784 784 783 781 781 780 779 779 778
760 754 750 744 740 738 736 736 735 735 738 739 741 743 745 748 750 753 754 755 758 759 761 764 766 768 769 770 771 772 773 773 774 774 774 774 773 772 771 770 770 770 770 769
752 749 744 738 735 732 731 730 728 727 728 729 729 731 734 737 739 742 744 746 748 750 751 752 755 757 758 759 760 761 762 763 763 763 763 762 762 761 761 761 761 761 761 761